This is the latest recevied weather packets stored in our database for station/object KD8UTJ. If no packets are shown the sender has not sent any weather packets the latest 1 day(s).
| Time | Temp. | Humidity | Pressure | Rain* | Wind** | Luminosity | Snow |
|---|---|---|---|---|---|---|---|
| 1778028055 | 23.89° C | 70% | 1017.8 hPa | 0 mm | - | 0 W/m² | - |
| 1778027751 | 23.89° C | 70% | 1017.8 hPa | 0 mm | - | 0 W/m² | - |
| 1778027143 | 23.89° C | 70% | 1017.7 hPa | 0 mm | - | 0 W/m² | - |
| 1778026536 | 23.89° C | 69% | 1017.7 hPa | 0 mm | - | 0 W/m² | - |
| 1778024114 | 24.44° C | 65% | 1017.7 hPa | 0 mm | - | 15 W/m² | - |
| 1778023509 | 24.44° C | 64% | 1017.5 hPa | 0 mm | - | 22 W/m² | - |
| 1778021692 | 25° C | 64% | 1017.6 hPa | 0 mm | - | 43 W/m² | - |
| 1778021388 | 25° C | 66% | 1017.7 hPa | 0 mm | - | 45 W/m² | - |
| 1778021085 | 25° C | 63% | 1017.8 hPa | 0 mm | - | 46 W/m² | - |
| 1778020479 | 25.56° C | 61% | 1018 hPa | 0 mm | - | 58 W/m² | - |
| 1778019872 | 25.56° C | 58% | 1017.9 hPa | 0 mm | - | 56 W/m² | - |
| 1778017147 | 25.56° C | 64% | 1017.6 hPa | 0 mm | - | 112 W/m² | - |
| 1778015934 | 25.56° C | 57% | 1017.7 hPa | 0 mm | - | 240 W/m² | - |
| 1778014420 | 26.11° C | 60% | 1017.6 hPa | 0 mm | - | 400 W/m² | - |
| 1778012904 | 26.67° C | 55% | 1017.8 hPa | 0 mm | - | 472 W/m² | - |
| 1778012297 | 26.67° C | 55% | 1017.8 hPa | 0 mm | - | 517 W/m² | - |
| 1778011693 | 26.11° C | 56% | 1017.9 hPa | 0 mm | - | 555 W/m² | - |
| 1778009273 | 26.67° C | 54% | 1018.4 hPa | 0 mm | - | 682 W/m² | - |
| 1778008668 | 26.67° C | 57% | 1018.4 hPa | 0 mm | - | 703 W/m² | - |
| 1778007454 | 26.11° C | 52% | 1018.4 hPa | 0 mm | - | 735 W/m² | - |
| 1778005634 | 26.67° C | 57% | 1019.1 hPa | 0 mm | - | 784 W/m² | - |
| 1778005028 | 26.11° C | 59% | 1018.9 hPa | 0 mm | - | 821 W/m² | - |
| 1778004726 | 25.56° C | 61% | 1018.9 hPa | 0 mm | - | 779 W/m² | - |
| 1778004119 | 26.11° C | 59% | 1019 hPa | 0 mm | - | 793 W/m² | - |
| 1778003208 | 26.11° C | 61% | 1019 hPa | 0 mm | - | 825 W/m² | - |
* Rain latest hour (hover to see other rain measurements)
** Current wind speed in m/s (hover to see current wind gust speed)